[[{"header":{"parameterUnit":"m.s-1","parameterCategory":1,"la1":30.2991,"la2":30.254,"lo1":-89.0895,"lo2":-89.0444,"dy":0.0017,"dx":0.0017,"nx":28,"ny":28,"refTime":"2025-06-17T09:00:00:Z","depth":0,"parameterNumber":2,"parameterNumberName":"U-component_of_WINDS"},"data":[0,0,0,0,0,0,0,0,0,0,0,0,0,0,0,0,0,0,0,0,0,0,0,0,0,0,0,0,0,0,0,0,0,0,0,0,0,0,0,0,0,0,0,0,0,0,0,0,0,0,0,0,0,0,0,0,0,0,-0.2965,-0.2964,0,-0.2954,-0.2954,-0.2954,-0.2984,-0.2985,-0.2986,-0.2987,-0.2976,-0.2975,-0.2974,0,0,0,0,0,0,0,0,0,0,0,0,0,-0.3012,-0.3011,-0.2965,-0.2964,-0.2964,-0.2954,-0.2954,-0.2954,-0.2984,-0.2985,-0.2986,-0.2987,-0.2977,-0.2976,-0.2974,0,0,0,0,0,0,0,0,0,0,0,0,0,-0.2995,-0.3011,-0.2965,-0.2978,-0.2979,-0.2954,-0.2954,-0.2954,-0.2983,-0.2985,-0.2986,-0.2987,-0.2977,-0.2976,-0.2974,-0.2936,0,0,-0.2969,-0.2968,0,0,0,0,0,0,0,0,-0.2996,-0.2994,-0.2976,-0.2977,-0.2978,-0.2972,-0.2967,-0.2948,-0.2983,-0.2982,-0.2987,-0.2988,-0.2974,-0.2972,-0.2967,-0.2935,-0.2935,-0.2969,-0.2968,-0.2967,-0.2966,0,0,0,0,0,0,0,-0.2997,-0.2994,-0.296,-0.2976,-0.2977,-0.2985,-0.2984,-0.2963,-0.297,-0.2982,-0.2984,-0.2982,-0.2975,-0.2969,-0.2967,-0.2935,-0.2969,-0.2967,-0.2966,-0.2965,-0.2871,-0.2869,0,0,0,0,0,0,-0.2997,-0.2995,-0.2961,-0.296,-0.2991,-0.2983,-0.2982,-0.2972,-0.297,-0.2971,-0.2981,-0.2984,-0.2971,-0.2969,-0.2967,-0.2922,-0.2967,-0.2965,-0.2964,-0.2872,-0.287,-0.2869,0,0,0,0,0,0,-0.2998,-0.2993,-0.2961,-0.2978,-0.2975,-0.2981,-0.2969,-0.2971,-0.2966,-0.297,-0.2971,-0.2974,-0.2972,-0.297,-0.2943,-0.2922,-0.2965,-0.2963,-0.2874,-0.2872,-0.287,-0.2832,0,0,0,0,0,0,-0.2999,-0.2994,-0.2979,-0.2978,-0.2974,-0.2937,-0.2968,-0.297,-0.2963,-0.2966,-0.2964,-0.2965,-0.2973,-0.2946,-0.2942,-0.2921,-0.2962,-0.2876,-0.2873,-0.287,-0.2835,-0.2829,-0.2823,0,0,0,0,0,-0.3,-0.2969,-0.2978,-0.2973,-0.2955,-0.2936,-0.2933,-0.2944,-0.2961,-0.2946,-0.2949,-0.2965,-0.2925,-0.2943,-0.2938,-0.2917,-0.2877,-0.2874,-0.2871,-0.2838,-0.283,-0.2823,0,0,0,0,0,0,-0.2968,-0.2969,-0.2979,-0.2946,-0.294,-0.2941,-0.2923,-0.2935,-0.2925,-0.2928,-0.2942,-0.2941,-0.2912,-0.2912,-0.2931,-0.288,-0.2904,-0.29,-0.2881,-0.2873,-0.2868,-0.2868,-0.296,0,0,0,0,0,-0.2956,-0.294,-0.2942,-0.2913,-0.2909,-0.2916,-0.2908,-0.2917,-0.2912,-0.291,-0.291,-0.2905,-0.2892,-0.2883,-0.2871,-0.2835,-0.2835,-0.2818,-0.2812,-0.2807,-0.2803,-0.2785,-0.2777,-0.2858,-0.2858,-0.2858,0,0,-0.2933,-0.2932,-0.2921,-0.2906,-0.2903,-0.2886,-0.2914,-0.2895,-0.2883,-0.2907,-0.2882,-0.2882,-0.2878,-0.2847,-0.2833,-0.2845,-0.2781,-0.2803,-0.2799,-0.2798,-0.278,-0.2773,-0.2766,-0.2855,-0.2856,-0.2856,0,0,-0.2882,-0.288,-0.2855,-0.2851,-0.2846,-0.285,-0.2844,-0.2843,-0.2844,-0.2819,-0.2837,-0.2823,-0.2799,-0.2795,-0.279,-0.2738,-0.2752,-0.2733,-0.2702,-0.2684,-0.2677,-0.2672,-0.2653,-0.2646,-0.2729,-0.2729,-0.2729,0,-0.2854,-0.2829,-0.2841,-0.282,-0.2813,-0.2834,-0.2809,-0.2805,-0.2796,-0.2791,-0.2805,-0.2776,-0.2774,-0.2743,-0.273,-0.2725,-0.2719,-0.2733,-0.2677,-0.2672,-0.2667,-0.2649,-0.2642,-0.2727,-0.2727,-0.2728,-0.2728,0,-0.2795,-0.2777,-0.2758,-0.2748,-0.2739,-0.2717,-0.2725,-0.2715,-0.2724,-0.2727,-0.2702,-0.2701,-0.2689,-0.2682,-0.2691,-0.2651,-0.2659,-0.2675,-0.27,-0.2657,-0.264,-0.2634,-0.2724,-0.2725,-0.2725,-0.2726,0,0,-0.2723,-0.272,-0.2712,-0.2708,-0.2704,-0.2691,-0.2669,-0.2657,-0.2648,-0.2641,-0.2624,-0.2603,-0.2618,-0.2612,-0.2621,-0.2605,-0.2563,-0.2623,-0.2623,-0.2612,-0.252,-0.2508,-0.25,-0.2573,-0.2572,-0.2571,-0.252,0,-0.2672,-0.2635,-0.2645,-0.2608,-0.2592,-0.2611,-0.2593,-0.2588,-0.2591,-0.2578,-0.2581,-0.2567,-0.2587,-0.2584,-0.2569,-0.2572,-0.2545,-0.2576,-0.2557,-0.2556,-0.2557,-0.2491,-0.2478,-0.243,-0.2514,-0.2513,-0.2512,0,-0.2609,-0.2599,-0.256,-0.2558,-0.2552,-0.2535,-0.2525,-0.2512,-0.2508,-0.2511,-0.2504,-0.2516,-0.2495,-0.2521,-0.2493,-0.2513,-0.2506,-0.2506,-0.2505,-0.2503,-0.2531,-0.2487,-0.2415,-0.2408,-0.2502,-0.2503,-0.2504,0,-0.256,-0.2537,-0.2511,-0.2507,-0.2504,-0.2492,-0.249,-0.2487,-0.2479,-0.247,-0.2465,-0.2454,-0.2448,-0.244,-0.2449,-0.2466,-0.2419,-0.2445,-0.2421,-0.2421,-0.241,-0.241,-0.2336,-0.2406,-0.2406,-0.2406,-0.2406,0,-0.2502,-0.2478,-0.2489,-0.2473,-0.2446,-0.2457,-0.2431,-0.2432,-0.2429,-0.2413,-0.243,-0.2415,-0.2428,-0.2415,-0.2422,-0.2397,-0.2394,-0.2396,-0.2398,-0.2395,-0.2394,-0.239,-0.2394,-0.2404,-0.2405,-0.2405,-0.2405,0,-0.2443,-0.2449,-0.2422,-0.2422,-0.2421,-0.2401,-0.2401,-0.2387,-0.2391,-0.2371,-0.2367,-0.2373,-0.2359,-0.2367,-0.2351,-0.2356,-0.2324,-0.2331,-0.2325,-0.2327,-0.2303,-0.2305,-0.2222,-0.2212,-0.2289,-0.2288,-0.2288,0,-0.2406,-0.2388,-0.2385,-0.2376,-0.2373,-0.2358,-0.235,-0.236,-0.2351,-0.2345,-0.2331,-0.2317,-0.2307,-0.2282,-0.2286,-0.2274,-0.2281,-0.2253,-0.2279,-0.2276,-0.228,-0.2281,-0.2279,-0.2247,-0.2246,-0.2246,-0.2245,0,-0.234,-0.2344,-0.2331,-0.2319,-0.2309,-0.23,-0.2293,-0.2285,-0.2296,-0.2285,-0.2269,-0.2261,-0.2246,-0.2232,-0.2222,-0.2221,-0.2235,-0.2237,-0.223,-0.2226,-0.2224,-0.2225,-0.2311,-0.2238,-0.2239,-0.224,-0.224,-0.224,-0.229,-0.2275,-0.227,-0.2256,-0.2251,-0.2244,-0.223,-0.2233,-0.222,-0.2207,-0.2215,-0.2197,-0.2193,-0.2181,-0.2178,-0.2165,-0.2176,-0.2167,-0.2165,-0.2162,-0.2159,-0.2226,-0.2163,-0.2163,-0.2163,-0.2163,-0.2164,0,-0.2225,-0.2223,-0.2209,-0.2198,-0.2187,-0.22,-0.2193,-0.2183,-0.2167,-0.2162,-0.2151,-0.2134,-0.212,-0.2123,-0.2111,-0.2099,-0.2105,-0.2096,-0.2097,-0.2096,-0.2149,-0.2156,-0.2091,-0.2091,-0.2091,-0.2091,-0.2091,-0.2091,-0.2189,-0.2163,-0.2167,-0.2139,-0.2138,-0.212,-0.2114,-0.2108,-0.2104,-0.2084,-0.2072,-0.2074,-0.2072,-0.206,-0.2049,-0.205,-0.2045,-0.2033,-0.2036,-0.2085,-0.2093,-0.2099,-0.2106,-0.2032,-0.2031,-0.1984,-0.1984,-0.1983]},{"header":{"parameterUnit":"m.s-1","parameterCategory":1,"la1":30.2991,"la2":30.254,"lo1":-89.0895,"lo2":-89.0444,"dy":0.0017,"dx":0.0017,"nx":28,"ny":28,"refTime":"2025-06-17T09:00:00:Z","depth":0,"parameterNumber":3,"parameterNumberName":"V-component_of_WINDS"},"data":[0,0,0,0,0,0,0,0,0,0,0,0,0,0,0,0,0,0,0,0,0,0,0,0,0,0,0,0,0,0,0,0,0,0,0,0,0,0,0,0,0,0,0,0,0,0,0,0,0,0,0,0,0,0,0,0,0,0,6.1498,6.1498,0,6.1565,6.1566,6.1567,6.1524,6.1522,6.152,6.1519,6.1582,6.1586,6.1589,0,0,0,0,0,0,0,0,0,0,0,0,0,6.1326,6.133,6.1498,6.1498,6.1499,6.1565,6.1566,6.1567,6.1525,6.1522,6.152,6.1518,6.1581,6.1585,6.159,0,0,0,0,0,0,0,0,0,0,0,0,0,6.1398,6.1331,6.1497,6.1486,6.1486,6.1565,6.1566,6.1567,6.1525,6.1522,6.1519,6.1517,6.158,6.1585,6.159,6.1682,0,0,6.1606,6.1609,0,0,0,0,0,0,0,0,6.1394,6.1404,6.1487,6.1487,6.1487,6.1534,6.1529,6.1606,6.1526,6.151,6.1519,6.1515,6.1568,6.1574,6.1593,6.1685,6.1688,6.1607,6.161,6.1612,6.1614,0,0,0,0,0,0,0,6.1389,6.1401,6.1524,6.1488,6.1488,6.1476,6.1483,6.1543,6.1555,6.1511,6.1508,6.1517,6.1567,6.1588,6.1594,6.1689,6.1607,6.1611,6.1615,6.1617,6.186,6.1863,0,0,0,0,0,0,6.1386,6.1397,6.1522,6.1526,6.1432,6.1482,6.1489,6.1521,6.1554,6.1556,6.152,6.1515,6.1581,6.1588,6.1596,6.1706,6.1612,6.1617,6.162,6.1856,6.186,6.1864,0,0,0,0,0,0,6.1382,6.1397,6.1519,6.1461,6.1476,6.1488,6.1524,6.1524,6.1545,6.1561,6.1562,6.1539,6.1579,6.1589,6.1662,6.1708,6.162,6.1625,6.1852,6.1857,6.1862,6.1926,0,0,0,0,0,0,6.1377,6.1396,6.1433,6.1462,6.1479,6.1585,6.1527,6.1528,6.1555,6.155,6.1579,6.1581,6.1577,6.1654,6.1667,6.1713,6.1629,6.1848,6.1855,6.186,6.192,6.1933,6.1944,0,0,0,0,0,6.1371,6.1447,6.1435,6.145,6.1525,6.1588,6.1597,6.1593,6.1559,6.1595,6.1605,6.158,6.1701,6.1662,6.1676,6.1725,6.1845,6.1853,6.186,6.1915,6.193,6.1944,0,0,0,0,0,0,6.142,6.145,6.1437,6.1525,6.1555,6.1581,6.1625,6.1609,6.1647,6.164,6.1631,6.1638,6.1714,6.1727,6.1683,6.1816,6.1768,6.1778,6.1804,6.1819,6.1831,6.1826,6.1633,0,0,0,0,0,6.1441,6.1492,6.1515,6.159,6.1606,6.1613,6.164,6.1635,6.1664,6.1675,6.1691,6.1719,6.1763,6.1792,6.1833,6.1922,6.1927,6.1963,6.1975,6.1984,6.1993,6.204,6.2056,6.1888,6.1888,6.1888,0,0,6.1485,6.1508,6.154,6.16,6.1622,6.1673,6.1624,6.1679,6.1716,6.1683,6.1753,6.1766,6.1796,6.1877,6.1914,6.189,6.2041,6.1994,6.2001,6.2005,6.205,6.2066,6.208,6.1893,6.1892,6.1891,0,0,6.159,6.1613,6.1678,6.1702,6.1737,6.1742,6.1758,6.1787,6.1794,6.1865,6.1841,6.1884,6.1961,6.1983,6.2005,6.212,6.2098,6.2134,6.2195,6.2241,6.2254,6.2266,6.2306,6.2321,6.2143,6.2143,6.2143,0,6.1639,6.1717,6.1713,6.1771,6.1798,6.1773,6.1837,6.186,6.1906,6.1924,6.1898,6.1993,6.2012,6.2098,6.2126,6.2145,6.2161,6.213,6.2253,6.2265,6.2276,6.2314,6.2329,6.2147,6.2146,6.2146,6.2145,0,6.1775,6.1829,6.1877,6.1924,6.1957,6.2017,6.2022,6.2054,6.2046,6.2053,6.2125,6.2147,6.2192,6.2212,6.2204,6.2297,6.2282,6.2255,6.2206,6.2296,6.2331,6.2346,6.2152,6.2151,6.215,6.2149,0,0,6.1911,6.1958,6.1975,6.1996,6.2033,6.2074,6.2133,6.218,6.2208,6.2241,6.2289,6.2355,6.2331,6.2355,6.2349,6.239,6.2479,6.2358,6.2358,6.2379,6.2582,6.2602,6.2619,6.2466,6.2469,6.2471,6.2579,0,6.2018,6.2124,6.2123,6.222,6.227,6.2247,6.2298,6.2326,6.2335,6.2376,6.2384,6.2431,6.2396,6.241,6.245,6.246,6.252,6.2452,6.2509,6.2511,6.2501,6.2638,6.2658,6.276,6.2593,6.2596,6.2598,0,6.2157,6.2197,6.23,6.233,6.2351,6.2397,6.244,6.2481,6.2511,6.2514,6.2543,6.253,6.2589,6.254,6.262,6.2575,6.2598,6.2606,6.261,6.2614,6.2559,6.2644,6.2792,6.2807,6.262,6.2618,6.2616,0,6.2245,6.2324,6.2396,6.2415,6.2452,6.2486,6.2502,6.253,6.2558,6.2595,6.2613,6.2655,6.2678,6.2711,6.271,6.2675,6.2791,6.2742,6.2794,6.2794,6.2818,6.2817,6.2971,6.2836,6.2835,6.2835,6.2835,0,6.2364,6.2428,6.2436,6.248,6.255,6.2548,6.2617,6.263,6.2655,6.27,6.2683,6.2725,6.2722,6.2764,6.2764,6.283,6.284,6.2843,6.2842,6.2845,6.2844,6.2859,6.2851,6.2839,6.2838,6.2837,6.2837,0,6.2474,6.2483,6.2559,6.2589,6.2598,6.2648,6.2673,6.2714,6.2722,6.2779,6.2792,6.2803,6.2852,6.2855,6.2911,6.2911,6.2991,6.2982,6.2981,6.2979,6.3031,6.3025,6.3199,6.3221,6.3072,6.3074,6.3075,0,6.2549,6.2597,6.2633,6.2663,6.2683,6.2731,6.276,6.2759,6.279,6.2829,6.2865,6.2913,6.2951,6.303,6.3042,6.3085,6.3076,6.3135,6.3083,6.3083,6.3076,6.3073,6.3077,6.3144,6.3146,6.3147,6.3148,0,6.268,6.2682,6.2726,6.2772,6.2808,6.2843,6.2876,6.2901,6.2904,6.2939,6.299,6.302,6.3079,6.3126,6.3168,6.3183,6.3166,6.3165,6.3179,6.3181,6.3178,6.3179,6.3007,6.316,6.3159,6.3158,6.3157,6.3157,6.2774,6.2816,6.2848,6.2898,6.2923,6.2954,6.2995,6.3008,6.3051,6.31,6.3097,6.3153,6.3182,6.3236,6.3255,6.3298,6.3278,6.3299,6.3304,6.3309,6.3314,6.3172,6.3306,6.3306,6.3305,6.3305,6.3305,0,6.2904,6.2924,6.2969,6.3017,6.3056,6.3039,6.3075,6.3107,6.3158,6.3187,6.3226,6.3284,6.333,6.3346,6.3391,6.3422,6.3415,6.3433,6.343,6.3434,6.3329,6.3312,6.3438,6.3438,6.3438,6.3438,6.3438,6.3438,6.2976,6.3046,6.3052,6.3135,6.3153,6.321,6.3232,6.326,6.3284,6.335,6.3389,6.3401,6.3424,6.3471,6.3512,6.3515,6.3532,6.3553,6.3553,6.3455,6.3441,6.3429,6.3412,6.3557,6.3557,6.3654,6.3655,6.3656]}]]